Regional Weather Roundup
Issued by NWS

Home | Current Version | Previous Version | Text Only | Print | Product List | Glossary Off
Versions: 1 2 3 4 5 6 7 8 9 10 11 12 13 14 15 16 17 18 19 20 21 22 23 24 25 26 27 28 29 30 31 32 33 34 35 36 37 38 39 40 41 42 43 44 45 46 47 48 49 50

000
ASUS45 KABQ 231110
RWRNM
NEW MEXICO REGIONAL WEATHER ROUNDUP
NATIONAL WEATHER SERVICE ALBUQUERQUE NM
500 AM MDT SUN APR 23 2017

NOTE: "FAIR" MEANS FEW OR NO CLOUDS BELOW 12,000 FEET AGL WITH NO
       SIGNIFICANT WEATHER OR OBSTRUCTIONS TO VISION.

      THIS PRODUCT IS RELEASED AS TWO VERSIONS.  ONE VERSION NEAR
      THE TOP OF THE HOUR CONTAINING PRELIMINARY DATA FROM ALBUQUERQUE
      AND OTHER STATIONS.  A FINAL VERSION WITH ADDITIONAL DATA IS
      ISSUED ABOUT 10 MINUTES AFTER THE HOUR.

NMZ501-503-504-510>518-231200-
NORTHWEST PLATEAU/NORTHCENTRAL MOUNTAINS

CITY           SKY/WX    TMP DP  RH WIND       PRES   REMARKS
FARMINGTON     FAIR      39  21  48 E8        30.12F WCI  33
LOS ALAMOS     FAIR      37  27  67 SW10G16   30.28F WCI  29
SANTA FE       FAIR      38  28  67 SE12      30.26F WCI  30
TAOS             N/A     28  18  64 NW3       30.27S
ANGEL FIRE     FAIR      29  26  88 SE10      30.26F WCI  20

$$
NMZ402-403-502-505>509-231200-
WESTCENTRAL MOUNTAINS/SOUTHWEST MOUNTAINS

CITY           SKY/WX    TMP DP  RH WIND       PRES   REMARKS
GALLUP         FAIR      35  21  56 CALM      30.14F
GRANTS         FAIR      41  29  61 S17G24    30.21S
SILVER CITY    FAIR      47  32  56 E10       30.19S

$$
NMZ407-409-411-412-231200-
SOUTHERN DESERTS

CITY           SKY/WX    TMP DP  RH WIND       PRES   REMARKS
DEMING         FAIR      49  33  54 NE10      30.16S
LAS CRUCES     FAIR      53  33  47 SE13      30.18S
HOLLOMAN AFB   FAIR      46  30  52 W6        30.23R
ALAMOGORDO     FAIR      46  30  53 NE8       30.20S
T OR C         FAIR      50  30  46 NE3       30.18S

$$
NMZ519>523-231200-
CENTRAL VALLEYS/CENTRAL HIGHLANDS

CITY           SKY/WX    TMP DP  RH WIND       PRES   REMARKS
ALBUQUERQUE    FAIR      47  29  49 NE17      30.21F
MORIARTY ARPT  FAIR      26  23  88 N5        30.29S WCI  21
CLINES CORNERS FAIR      32  25  75 SE7       30.28F WCI  26
BELEN          FAIR      44  28  54 NW6       30.21F
SOCORRO        FAIR      44  28  55 NW3       30.21S

$$
NMZ524>526-539-540-231200-
SOUTHCENTRAL MOUNTAINS

CITY           SKY/WX    TMP DP  RH WIND       PRES   REMARKS
RUIDOSO        FAIR      34  27  75 SE7       30.31S WCI  28

$$
NMZ527>531-231200-
NORTHEAST HIGHLANDS/NORTHEAST PLAINS

CITY           SKY/WX    TMP DP  RH WIND       PRES   REMARKS
LAS VEGAS      FAIR      31  26  82 SW14      30.26F WCI  21
RATON          FAIR      30  25  81 CALM      30.21F
CLAYTON        FAIR      36  29  75 SW10      30.21F WCI  28

$$
NMZ532>537-231200-
EASTCENTRAL PLAINS

CITY           SKY/WX    TMP DP  RH WIND       PRES   REMARKS
SANTA ROSA     FAIR      36  28  72 CALM      30.26S
TUCUMCARI      FAIR      37  29  72 SW6       30.23F WCI  32
CANNON AFB     FAIR      38  34  85 CALM      30.26F
CLOVIS AIRPORT FAIR      34  25  69 SW6       30.26S WCI  29

$$
NMZ028-029-538-231200-
SOUTHEAST PLAINS

CITY           SKY/WX    TMP DP  RH WIND       PRES   REMARKS
ROSWELL        FAIR      44  33  65 S5          N/A
ARTESIA        FAIR      46  34  61 S3        30.27S
CARLSBAD       FAIR      45  34  65 S3        30.25S
HOBBS          FAIR      41  32  70 E3        30.27S


$$




USA.gov is the U.S. government's official web portal to all federal, state and local government web resources and services.